ROCKY HARBOUR CS, NFLD. current weather conditions

sailwx.info

Last reported at 2017-Feb-23 06:09 UTC.
Time now 2018-Feb-18 03:36 UTC

Location: N 49°34' W 057°53'.
View on Google Maps.

See reports from other nearby stations

  
Tides and Currents Weather Stations Pressure Air Temp Water Temp Dewpoint Dewpoint Depression Visibility Wind Speed Wind Dir Waves Ship Positions
date/time (UTC)wind fromknots sea level pressurealtimeterstation pressurevisibilityair tempwater tempwave heightnotes
2018-Feb-18 03:00 320 5 -14.0
2018-Feb-18 02:00 340 5 -14.0
2018-Feb-18 01:00 320 7 gusting 15 -14.0
2018-Feb-18 00:00 320 6 gusting 14 -14.0
2018-Feb-17 23:00 290 6 -14.0
2018-Feb-17 22:00 300 6 -14.0
2018-Feb-17 21:00 270 9 gusting 19 -14.0
2018-Feb-17 20:00 270 11 gusting 21 -14.0
2018-Feb-17 19:00 270 12 gusting 19 -14.0
2018-Feb-17 18:00 280 11 gusting 19 -13.0
2018-Feb-17 17:00 290 8 gusting 19 -12.0
2018-Feb-17 16:00 300 6 -12.0
2018-Feb-17 15:00 300 6 gusting 14 -12.0
2018-Feb-17 14:00 320 6 gusting 15 -13.0
2018-Feb-17 13:00 310 6 gusting 15 -13.0
2018-Feb-17 12:00 320 6 -12.0
2018-Feb-17 11:00 310 8 gusting 17 -11.0
2018-Feb-17 10:00 310 5 -10.0
2018-Feb-17 09:00 320 5 gusting 15 -9.0
2018-Feb-17 08:00 320 6 gusting 14 -7.0
2018-Feb-17 07:00 330 6 -7.0
2018-Feb-17 06:00 310 4 -6.0
2018-Feb-17 05:00 310 2 -5.0
2018-Feb-17 04:00 330 6 -4.0
2018-Feb-17 03:00 330 5 -3.0
2018-Feb-17 02:00 260 6 -2.0
2018-Feb-17 01:00 250 6 -2.0
2018-Feb-17 00:00 250 7 -2.0
2018-Feb-16 23:00 260 6 -2.0
2018-Feb-16 22:00 250 7 -2.0
2018-Feb-16 21:00 230 8 gusting 14 -1.0
2018-Feb-16 20:00 250 5 -0.0
2018-Feb-16 19:00 220 5 -0.0
2018-Feb-16 18:00 200 6 -0.0
2018-Feb-16 17:00 160 5 -0.0
2018-Feb-16 16:00 140 4 -1.0
2018-Feb-16 15:00 140 5 -1.0
2018-Feb-16 14:00 160 6 -2.0
2018-Feb-16 13:00 150 6 -2.0
2018-Feb-16 12:00 130 5 -2.0
2018-Feb-16 11:00 150 5 -3.0
2018-Feb-16 10:00 140 5 -3.0
2018-Feb-16 09:00 150 2 -3.0
2018-Feb-16 08:00 120 6 -3.0
2018-Feb-16 07:00 120 6 -2.0
2018-Feb-16 06:00 120 6 -2.0
2018-Feb-16 05:00 120 5 -2.0
2018-Feb-16 04:00 110 9 gusting 15 -2.0
2018-Feb-16 03:00 110 4 -2.0